Date_Time,Julian_Date,Latitude,Longitude,Instrument_Depth,Water_Temperature
(yyyy-mm-dd hh:mn:ss UTC),(JD),(+ deg. North),(+ deg. East),(m),(deg. C)
1993-03-20 01:00:00 UTC,2449066.541667,28.6081,-90.4919,0010,18.5500
1993-03-20 01:30:00 UTC,2449066.562500,28.6081,-90.4919,0010,18.5500
1993-03-20 02:00:00 UTC,2449066.583333,28.6081,-90.4919,0010,18.5500
1993-03-20 02:30:00 UTC,2449066.604167,28.6081,-90.4919,0010,18.5500
1993-03-20 03:00:00 UTC,2449066.625000,28.6081,-90.4919,0010,18.5500
1993-03-20 03:30:00 UTC,2449066.645833,28.6081,-90.4919,0010,18.6400
1993-03-20 04:00:00 UTC,2449066.666667,28.6081,-90.4919,0010,18.6400
1993-03-20 04:30:00 UTC,2449066.687500,28.6081,-90.4919,0010,18.5500
1993-03-20 05:00:00 UTC,2449066.708333,28.6081,-90.4919,0010,18.5500
1993-03-20 05:30:00 UTC,2449066.729167,28.6081,-90.4919,0010,18.5500
1993-03-20 06:00:00 UTC,2449066.750000,28.6081,-90.4919,0010,18.5500
1993-03-20 06:30:00 UTC,2449066.770833,28.6081,-90.4919,0010,18.5500
1993-03-20 07:00:00 UTC,2449066.791667,28.6081,-90.4919,0010,18.5500
1993-03-20 07:30:00 UTC,2449066.812500,28.6081,-90.4919,0010,18.4500
1993-03-20 08:00:00 UTC,2449066.833333,28.6081,-90.4919,0010,18.5500
1993-03-20 08:30:00 UTC,2449066.854167,28.6081,-90.4919,0010,18.4500
1993-03-20 09:00:00 UTC,2449066.875000,28.6081,-90.4919,0010,18.5500
1993-03-20 09:30:00 UTC,2449066.895833,28.6081,-90.4919,0010,18.4500
1993-03-20 10:00:00 UTC,2449066.916667,28.6081,-90.4919,0010,18.4500
1993-03-20 10:30:00 UTC,2449066.937500,28.6081,-90.4919,0010,18.4500
1993-03-20 11:00:00 UTC,2449066.958333,28.6081,-90.4919,0010,18.4500
1993-03-20 11:30:00 UTC,2449066.979167,28.6081,-90.4919,0010,18.4500
1993-03-20 12:00:00 UTC,2449067.000000,28.6081,-90.4919,0010,18.5500
1993-03-20 12:30:00 UTC,2449067.020833,28.6081,-90.4919,0010,18.4500
1993-03-20 13:00:00 UTC,2449067.041667,28.6081,-90.4919,0010,18.5500
1993-03-20 13:30:00 UTC,2449067.062500,28.6081,-90.4919,0010,18.4500
1993-03-20 14:00:00 UTC,2449067.083333,28.6081,-90.4919,0010,18.5500
1993-03-20 14:30:00 UTC,2449067.104167,28.6081,-90.4919,0010,18.4500
1993-03-20 15:00:00 UTC,2449067.125000,28.6081,-90.4919,0010,18.5500
1993-03-20 15:30:00 UTC,2449067.145833,28.6081,-90.4919,0010,18.4500
1993-03-20 16:00:00 UTC,2449067.166667,28.6081,-90.4919,0010,18.4500
1993-03-20 16:30:00 UTC,2449067.187500,28.6081,-90.4919,0010,18.4500
1993-03-20 17:00:00 UTC,2449067.208333,28.6081,-90.4919,0010,18.4500
1993-03-20 17:30:00 UTC,2449067.229167,28.6081,-90.4919,0010,18.4500
1993-03-20 18:00:00 UTC,2449067.250000,28.6081,-90.4919,0010,18.4500
1993-03-20 18:30:00 UTC,2449067.270833,28.6081,-90.4919,0010,18.4500
1993-03-20 19:00:00 UTC,2449067.291667,28.6081,-90.4919,0010,18.4500
1993-03-20 19:30:00 UTC,2449067.312500,28.6081,-90.4919,0010,18.4500
1993-03-20 20:00:00 UTC,2449067.333333,28.6081,-90.4919,0010,18.4500
1993-03-20 20:30:00 UTC,2449067.354167,28.6081,-90.4919,0010,18.4500
1993-03-20 21:00:00 UTC,2449067.375000,28.6081,-90.4919,0010,18.4500
1993-03-20 21:30:00 UTC,2449067.395833,28.6081,-90.4919,0010,18.4500
1993-03-20 22:00:00 UTC,2449067.416667,28.6081,-90.4919,0010,18.4500
1993-03-20 22:30:00 UTC,2449067.437500,28.6081,-90.4919,0010,18.4500
1993-03-20 23:00:00 UTC,2449067.458333,28.6081,-90.4919,0010,18.4500
1993-03-20 23:30:00 UTC,2449067.479167,28.6081,-90.4919,0010,18.4500
1993-03-21 00:00:00 UTC,2449067.500000,28.6081,-90.4919,0010,18.4500
1993-03-21 00:30:00 UTC,2449067.520833,28.6081,-90.4919,0010,18.4500
1993-03-21 01:00:00 UTC,2449067.541667,28.6081,-90.4919,0010,18.4500
1993-03-21 01:30:00 UTC,2449067.562500,28.6081,-90.4919,0010,18.4500
1993-03-21 02:00:00 UTC,2449067.583333,28.6081,-90.4919,0010,18.5500
1993-03-21 02:30:00 UTC,2449067.604167,28.6081,-90.4919,0010,18.4500
1993-03-21 03:00:00 UTC,2449067.625000,28.6081,-90.4919,0010,18.4500
1993-03-21 03:30:00 UTC,2449067.645833,28.6081,-90.4919,0010,18.4500
1993-03-21 04:00:00 UTC,2449067.666667,28.6081,-90.4919,0010,18.3500
1993-03-21 04:30:00 UTC,2449067.687500,28.6081,-90.4919,0010,18.5500
1993-03-21 05:00:00 UTC,2449067.708333,28.6081,-90.4919,0010,18.5500
1993-03-21 05:30:00 UTC,2449067.729167,28.6081,-90.4919,0010,18.4500
1993-03-21 06:00:00 UTC,2449067.750000,28.6081,-90.4919,0010,18.5500
1993-03-21 06:30:00 UTC,2449067.770833,28.6081,-90.4919,0010,18.5500
1993-03-21 07:00:00 UTC,2449067.791667,28.6081,-90.4919,0010,18.4500
1993-03-21 07:30:00 UTC,2449067.812500,28.6081,-90.4919,0010,18.4500
1993-03-21 08:00:00 UTC,2449067.833333,28.6081,-90.4919,0010,18.4500
1993-03-21 08:30:00 UTC,2449067.854167,28.6081,-90.4919,0010,18.3500
1993-03-21 09:00:00 UTC,2449067.875000,28.6081,-90.4919,0010,18.3500
1993-03-21 09:30:00 UTC,2449067.895833,28.6081,-90.4919,0010,18.3500
1993-03-21 10:00:00 UTC,2449067.916667,28.6081,-90.4919,0010,18.3500
1993-03-21 10:30:00 UTC,2449067.937500,28.6081,-90.4919,0010,18.2500
1993-03-21 11:00:00 UTC,2449067.958333,28.6081,-90.4919,0010,18.2500
1993-03-21 11:30:00 UTC,2449067.979167,28.6081,-90.4919,0010,18.1500
1993-03-21 12:00:00 UTC,2449068.000000,28.6081,-90.4919,0010,18.1500
1993-03-21 12:30:00 UTC,2449068.020833,28.6081,-90.4919,0010,18.1500
1993-03-21 13:00:00 UTC,2449068.041667,28.6081,-90.4919,0010,18.1500
1993-03-21 13:30:00 UTC,2449068.062500,28.6081,-90.4919,0010,18.2500
1993-03-21 14:00:00 UTC,2449068.083333,28.6081,-90.4919,0010,18.5500
1993-03-21 14:30:00 UTC,2449068.104167,28.6081,-90.4919,0010,18.7400
1993-03-21 15:00:00 UTC,2449068.125000,28.6081,-90.4919,0010,18.7400
1993-03-21 15:30:00 UTC,2449068.145833,28.6081,-90.4919,0010,18.7400
1993-03-21 16:00:00 UTC,2449068.166667,28.6081,-90.4919,0010,18.8400
1993-03-21 16:30:00 UTC,2449068.187500,28.6081,-90.4919,0010,18.8400
1993-03-21 17:00:00 UTC,2449068.208333,28.6081,-90.4919,0010,18.9400
1993-03-21 17:30:00 UTC,2449068.229167,28.6081,-90.4919,0010,18.8400
1993-03-21 18:00:00 UTC,2449068.250000,28.6081,-90.4919,0010,18.9400
1993-03-21 18:30:00 UTC,2449068.270833,28.6081,-90.4919,0010,18.9400
1993-03-21 19:00:00 UTC,2449068.291667,28.6081,-90.4919,0010,18.9400
1993-03-21 19:30:00 UTC,2449068.312500,28.6081,-90.4919,0010,19.0400
1993-03-21 20:00:00 UTC,2449068.333333,28.6081,-90.4919,0010,18.9400
1993-03-21 20:30:00 UTC,2449068.354167,28.6081,-90.4919,0010,19.0400
1993-03-21 21:00:00 UTC,2449068.375000,28.6081,-90.4919,0010,19.1300
1993-03-21 21:30:00 UTC,2449068.395833,28.6081,-90.4919,0010,18.9400
1993-03-21 22:00:00 UTC,2449068.416667,28.6081,-90.4919,0010,18.9400
1993-03-21 22:30:00 UTC,2449068.437500,28.6081,-90.4919,0010,18.9400
1993-03-21 23:00:00 UTC,2449068.458333,28.6081,-90.4919,0010,18.9400
1993-03-21 23:30:00 UTC,2449068.479167,28.6081,-90.4919,0010,18.9400
1993-03-22 00:00:00 UTC,2449068.500000,28.6081,-90.4919,0010,19.1300
1993-03-22 00:30:00 UTC,2449068.520833,28.6081,-90.4919,0010,19.2300
1993-03-22 01:00:00 UTC,2449068.541667,28.6081,-90.4919,0010,19.1300
1993-03-22 01:30:00 UTC,2449068.562500,28.6081,-90.4919,0010,18.9400
1993-03-22 02:00:00 UTC,2449068.583333,28.6081,-90.4919,0010,19.1300
1993-03-22 02:30:00 UTC,2449068.604167,28.6081,-90.4919,0010,19.0400
1993-03-22 03:00:00 UTC,2449068.625000,28.6081,-90.4919,0010,19.0400
1993-03-22 03:30:00 UTC,2449068.645833,28.6081,-90.4919,0010,19.0400
1993-03-22 04:00:00 UTC,2449068.666667,28.6081,-90.4919,0010,19.0400
1993-03-22 04:30:00 UTC,2449068.687500,28.6081,-90.4919,0010,18.9400
1993-03-22 05:00:00 UTC,2449068.708333,28.6081,-90.4919,0010,19.1300
1993-03-22 05:30:00 UTC,2449068.729167,28.6081,-90.4919,0010,19.2300
1993-03-22 06:00:00 UTC,2449068.750000,28.6081,-90.4919,0010,19.2300
1993-03-22 06:30:00 UTC,2449068.770833,28.6081,-90.4919,0010,19.0400
1993-03-22 07:00:00 UTC,2449068.791667,28.6081,-90.4919,0010,18.9400
1993-03-22 07:30:00 UTC,2449068.812500,28.6081,-90.4919,0010,19.1300
1993-03-22 08:00:00 UTC,2449068.833333,28.6081,-90.4919,0010,18.9400
1993-03-22 08:30:00 UTC,2449068.854167,28.6081,-90.4919,0010,18.9400
1993-03-22 09:00:00 UTC,2449068.875000,28.6081,-90.4919,0010,18.9400
1993-03-22 09:30:00 UTC,2449068.895833,28.6081,-90.4919,0010,19.0400
1993-03-22 10:00:00 UTC,2449068.916667,28.6081,-90.4919,0010,18.9400
1993-03-22 10:30:00 UTC,2449068.937500,28.6081,-90.4919,0010,19.0400
1993-03-22 11:00:00 UTC,2449068.958333,28.6081,-90.4919,0010,18.9400
1993-03-22 11:30:00 UTC,2449068.979167,28.6081,-90.4919,0010,18.9400
1993-03-22 12:00:00 UTC,2449069.000000,28.6081,-90.4919,0010,19.1300
1993-03-22 12:30:00 UTC,2449069.020833,28.6081,-90.4919,0010,19.0400
1993-03-22 13:00:00 UTC,2449069.041667,28.6081,-90.4919,0010,19.1300
1993-03-22 13:30:00 UTC,2449069.062500,28.6081,-90.4919,0010,19.1300
1993-03-22 14:00:00 UTC,2449069.083333,28.6081,-90.4919,0010,19.1300
1993-03-22 14:30:00 UTC,2449069.104167,28.6081,-90.4919,0010,19.0400
1993-03-22 15:00:00 UTC,2449069.125000,28.6081,-90.4919,0010,19.0400
1993-03-22 15:30:00 UTC,2449069.145833,28.6081,-90.4919,0010,18.9400
1993-03-22 16:00:00 UTC,2449069.166667,28.6081,-90.4919,0010,18.9400
1993-03-22 16:30:00 UTC,2449069.187500,28.6081,-90.4919,0010,18.9400
1993-03-22 17:00:00 UTC,2449069.208333,28.6081,-90.4919,0010,18.9400
1993-03-22 17:30:00 UTC,2449069.229167,28.6081,-90.4919,0010,18.9400
1993-03-22 18:00:00 UTC,2449069.250000,28.6081,-90.4919,0010,18.9400
1993-03-22 18:30:00 UTC,2449069.270833,28.6081,-90.4919,0010,18.9400
1993-03-22 19:00:00 UTC,2449069.291667,28.6081,-90.4919,0010,18.9400
1993-03-22 19:30:00 UTC,2449069.312500,28.6081,-90.4919,0010,18.9400
1993-03-22 20:00:00 UTC,2449069.333333,28.6081,-90.4919,0010,19.0400
1993-03-22 20:30:00 UTC,2449069.354167,28.6081,-90.4919,0010,18.9400
1993-03-22 21:00:00 UTC,2449069.375000,28.6081,-90.4919,0010,18.9400
1993-03-22 21:30:00 UTC,2449069.395833,28.6081,-90.4919,0010,18.9400
1993-03-22 22:00:00 UTC,2449069.416667,28.6081,-90.4919,0010,18.9400
1993-03-22 22:30:00 UTC,2449069.437500,28.6081,-90.4919,0010,18.9400
1993-03-22 23:00:00 UTC,2449069.458333,28.6081,-90.4919,0010,18.9400
1993-03-22 23:30:00 UTC,2449069.479167,28.6081,-90.4919,0010,18.9400
1993-03-23 00:00:00 UTC,2449069.500000,28.6081,-90.4919,0010,18.9400
1993-03-23 00:30:00 UTC,2449069.520833,28.6081,-90.4919,0010,18.9400
1993-03-23 01:00:00 UTC,2449069.541667,28.6081,-90.4919,0010,18.9400
1993-03-23 01:30:00 UTC,2449069.562500,28.6081,-90.4919,0010,19.0400
1993-03-23 02:00:00 UTC,2449069.583333,28.6081,-90.4919,0010,19.0400
1993-03-23 02:30:00 UTC,2449069.604167,28.6081,-90.4919,0010,19.0400
1993-03-23 03:00:00 UTC,2449069.625000,28.6081,-90.4919,0010,19.0400
1993-03-23 03:30:00 UTC,2449069.645833,28.6081,-90.4919,0010,18.9400
1993-03-23 04:00:00 UTC,2449069.666667,28.6081,-90.4919,0010,19.0400
1993-03-23 04:30:00 UTC,2449069.687500,28.6081,-90.4919,0010,18.9400
1993-03-23 05:00:00 UTC,2449069.708333,28.6081,-90.4919,0010,18.9400
1993-03-23 05:30:00 UTC,2449069.729167,28.6081,-90.4919,0010,18.9400
1993-03-23 06:00:00 UTC,2449069.750000,28.6081,-90.4919,0010,19.0400
1993-03-23 06:30:00 UTC,2449069.770833,28.6081,-90.4919,0010,18.9400
1993-03-23 07:00:00 UTC,2449069.791667,28.6081,-90.4919,0010,18.9400
1993-03-23 07:30:00 UTC,2449069.812500,28.6081,-90.4919,0010,18.9400
1993-03-23 08:00:00 UTC,2449069.833333,28.6081,-90.4919,0010,18.9400
1993-03-23 08:30:00 UTC,2449069.854167,28.6081,-90.4919,0010,18.9400
1993-03-23 09:00:00 UTC,2449069.875000,28.6081,-90.4919,0010,18.9400
1993-03-23 09:30:00 UTC,2449069.895833,28.6081,-90.4919,0010,19.0400
1993-03-23 10:00:00 UTC,2449069.916667,28.6081,-90.4919,0010,18.9400
1993-03-23 10:30:00 UTC,2449069.937500,28.6081,-90.4919,0010,18.9400
1993-03-23 11:00:00 UTC,2449069.958333,28.6081,-90.4919,0010,18.9400
1993-03-23 11:30:00 UTC,2449069.979167,28.6081,-90.4919,0010,18.9400
1993-03-23 12:00:00 UTC,2449070.000000,28.6081,-90.4919,0010,19.0400
1993-03-23 12:30:00 UTC,2449070.020833,28.6081,-90.4919,0010,18.9400
1993-03-23 13:00:00 UTC,2449070.041667,28.6081,-90.4919,0010,18.9400
1993-03-23 13:30:00 UTC,2449070.062500,28.6081,-90.4919,0010,19.0400
1993-03-23 14:00:00 UTC,2449070.083333,28.6081,-90.4919,0010,19.0400
1993-03-23 14:30:00 UTC,2449070.104167,28.6081,-90.4919,0010,18.9400
1993-03-23 15:00:00 UTC,2449070.125000,28.6081,-90.4919,0010,18.9400
1993-03-23 15:30:00 UTC,2449070.145833,28.6081,-90.4919,0010,18.9400
1993-03-23 16:00:00 UTC,2449070.166667,28.6081,-90.4919,0010,19.0400
1993-03-23 16:30:00 UTC,2449070.187500,28.6081,-90.4919,0010,19.0400
1993-03-23 17:00:00 UTC,2449070.208333,28.6081,-90.4919,0010,19.0400
1993-03-23 17:30:00 UTC,2449070.229167,28.6081,-90.4919,0010,19.0400
1993-03-23 18:00:00 UTC,2449070.250000,28.6081,-90.4919,0010,19.0400
1993-03-23 18:30:00 UTC,2449070.270833,28.6081,-90.4919,0010,19.0400
1993-03-23 19:00:00 UTC,2449070.291667,28.6081,-90.4919,0010,19.0400
1993-03-23 19:30:00 UTC,2449070.312500,28.6081,-90.4919,0010,19.0400
1993-03-23 20:00:00 UTC,2449070.333333,28.6081,-90.4919,0010,19.0400
1993-03-23 20:30:00 UTC,2449070.354167,28.6081,-90.4919,0010,19.0400
1993-03-23 21:00:00 UTC,2449070.375000,28.6081,-90.4919,0010,19.0400
1993-03-23 21:30:00 UTC,2449070.395833,28.6081,-90.4919,0010,19.0400
1993-03-23 22:00:00 UTC,2449070.416667,28.6081,-90.4919,0010,19.0400
1993-03-23 22:30:00 UTC,2449070.437500,28.6081,-90.4919,0010,18.9400
1993-03-23 23:00:00 UTC,2449070.458333,28.6081,-90.4919,0010,19.0400
1993-03-23 23:30:00 UTC,2449070.479167,28.6081,-90.4919,0010,19.0400
1993-03-24 00:00:00 UTC,2449070.500000,28.6081,-90.4919,0010,19.0400
1993-03-24 00:30:00 UTC,2449070.520833,28.6081,-90.4919,0010,19.0400
1993-03-24 01:00:00 UTC,2449070.541667,28.6081,-90.4919,0010,19.1300
1993-03-24 01:30:00 UTC,2449070.562500,28.6081,-90.4919,0010,19.1300
1993-03-24 02:00:00 UTC,2449070.583333,28.6081,-90.4919,0010,19.1300
1993-03-24 02:30:00 UTC,2449070.604167,28.6081,-90.4919,0010,19.1300
1993-03-24 03:00:00 UTC,2449070.625000,28.6081,-90.4919,0010,19.1300
1993-03-24 03:30:00 UTC,2449070.645833,28.6081,-90.4919,0010,19.0400
1993-03-24 04:00:00 UTC,2449070.666667,28.6081,-90.4919,0010,19.0400
1993-03-24 04:30:00 UTC,2449070.687500,28.6081,-90.4919,0010,19.0400
1993-03-24 05:00:00 UTC,2449070.708333,28.6081,-90.4919,0010,19.0400
1993-03-24 05:30:00 UTC,2449070.729167,28.6081,-90.4919,0010,19.0400
1993-03-24 06:00:00 UTC,2449070.750000,28.6081,-90.4919,0010,19.0400
1993-03-24 06:30:00 UTC,2449070.770833,28.6081,-90.4919,0010,18.9400
1993-03-24 07:00:00 UTC,2449070.791667,28.6081,-90.4919,0010,19.0400
1993-03-24 07:30:00 UTC,2449070.812500,28.6081,-90.4919,0010,19.0400
1993-03-24 08:00:00 UTC,2449070.833333,28.6081,-90.4919,0010,19.0400
1993-03-24 08:30:00 UTC,2449070.854167,28.6081,-90.4919,0010,19.0400
1993-03-24 09:00:00 UTC,2449070.875000,28.6081,-90.4919,0010,19.0400
1993-03-24 09:30:00 UTC,2449070.895833,28.6081,-90.4919,0010,19.0400
1993-03-24 10:00:00 UTC,2449070.916667,28.6081,-90.4919,0010,19.0400
1993-03-24 10:30:00 UTC,2449070.937500,28.6081,-90.4919,0010,19.0400
1993-03-24 11:00:00 UTC,2449070.958333,28.6081,-90.4919,0010,19.0400
1993-03-24 11:30:00 UTC,2449070.979167,28.6081,-90.4919,0010,19.0400
1993-03-24 12:00:00 UTC,2449071.000000,28.6081,-90.4919,0010,19.1300
1993-03-24 12:30:00 UTC,2449071.020833,28.6081,-90.4919,0010,19.1300
1993-03-24 13:00:00 UTC,2449071.041667,28.6081,-90.4919,0010,19.1300
1993-03-24 13:30:00 UTC,2449071.062500,28.6081,-90.4919,0010,19.0400
1993-03-24 14:00:00 UTC,2449071.083333,28.6081,-90.4919,0010,18.9400
1993-03-24 14:30:00 UTC,2449071.104167,28.6081,-90.4919,0010,19.0400
1993-03-24 15:00:00 UTC,2449071.125000,28.6081,-90.4919,0010,19.0400
1993-03-24 15:30:00 UTC,2449071.145833,28.6081,-90.4919,0010,19.0400
1993-03-24 16:00:00 UTC,2449071.166667,28.6081,-90.4919,0010,19.0400
1993-03-24 16:30:00 UTC,2449071.187500,28.6081,-90.4919,0010,18.9400
1993-03-24 17:00:00 UTC,2449071.208333,28.6081,-90.4919,0010,19.0400
1993-03-24 17:30:00 UTC,2449071.229167,28.6081,-90.4919,0010,19.0400
1993-03-24 18:00:00 UTC,2449071.250000,28.6081,-90.4919,0010,19.0400
1993-03-24 18:30:00 UTC,2449071.270833,28.6081,-90.4919,0010,19.0400
1993-03-24 19:00:00 UTC,2449071.291667,28.6081,-90.4919,0010,19.0400
1993-03-24 19:30:00 UTC,2449071.312500,28.6081,-90.4919,0010,19.0400
1993-03-24 20:00:00 UTC,2449071.333333,28.6081,-90.4919,0010,19.0400
1993-03-24 20:30:00 UTC,2449071.354167,28.6081,-90.4919,0010,19.0400
1993-03-24 21:00:00 UTC,2449071.375000,28.6081,-90.4919,0010,19.0400
1993-03-24 21:30:00 UTC,2449071.395833,28.6081,-90.4919,0010,18.9400
1993-03-24 22:00:00 UTC,2449071.416667,28.6081,-90.4919,0010,19.0400
1993-03-24 22:30:00 UTC,2449071.437500,28.6081,-90.4919,0010,19.0400
1993-03-24 23:00:00 UTC,2449071.458333,28.6081,-90.4919,0010,19.0400
1993-03-24 23:30:00 UTC,2449071.479167,28.6081,-90.4919,0010,18.9400
1993-03-25 00:00:00 UTC,2449071.500000,28.6081,-90.4919,0010,18.9400
1993-03-25 00:30:00 UTC,2449071.520833,28.6081,-90.4919,0010,19.0400
1993-03-25 01:00:00 UTC,2449071.541667,28.6081,-90.4919,0010,19.0400
1993-03-25 01:30:00 UTC,2449071.562500,28.6081,-90.4919,0010,19.0400
1993-03-25 02:00:00 UTC,2449071.583333,28.6081,-90.4919,0010,19.0400
1993-03-25 02:30:00 UTC,2449071.604167,28.6081,-90.4919,0010,18.9400
1993-03-25 03:00:00 UTC,2449071.625000,28.6081,-90.4919,0010,18.9400
1993-03-25 03:30:00 UTC,2449071.645833,28.6081,-90.4919,0010,18.9400
1993-03-25 04:00:00 UTC,2449071.666667,28.6081,-90.4919,0010,18.9400
1993-03-25 04:30:00 UTC,2449071.687500,28.6081,-90.4919,0010,18.9400
1993-03-25 05:00:00 UTC,2449071.708333,28.6081,-90.4919,0010,19.0400
1993-03-25 05:30:00 UTC,2449071.729167,28.6081,-90.4919,0010,18.9400
1993-03-25 06:00:00 UTC,2449071.750000,28.6081,-90.4919,0010,19.0400
1993-03-25 06:30:00 UTC,2449071.770833,28.6081,-90.4919,0010,19.0400
1993-03-25 07:00:00 UTC,2449071.791667,28.6081,-90.4919,0010,19.0400
1993-03-25 07:30:00 UTC,2449071.812500,28.6081,-90.4919,0010,18.9400
1993-03-25 08:00:00 UTC,2449071.833333,28.6081,-90.4919,0010,18.9400
1993-03-25 08:30:00 UTC,2449071.854167,28.6081,-90.4919,0010,19.0400
1993-03-25 09:00:00 UTC,2449071.875000,28.6081,-90.4919,0010,18.9400
1993-03-25 09:30:00 UTC,2449071.895833,28.6081,-90.4919,0010,19.0400
1993-03-25 10:00:00 UTC,2449071.916667,28.6081,-90.4919,0010,18.9400
1993-03-25 10:30:00 UTC,2449071.937500,28.6081,-90.4919,0010,18.9400
1993-03-25 11:00:00 UTC,2449071.958333,28.6081,-90.4919,0010,18.9400
1993-03-25 11:30:00 UTC,2449071.979167,28.6081,-90.4919,0010,19.1300
1993-03-25 12:00:00 UTC,2449072.000000,28.6081,-90.4919,0010,18.9400
1993-03-25 12:30:00 UTC,2449072.020833,28.6081,-90.4919,0010,18.9400
1993-03-25 13:00:00 UTC,2449072.041667,28.6081,-90.4919,0010,18.9400
1993-03-25 13:30:00 UTC,2449072.062500,28.6081,-90.4919,0010,18.9400
1993-03-25 14:00:00 UTC,2449072.083333,28.6081,-90.4919,0010,19.0400
1993-03-25 14:30:00 UTC,2449072.104167,28.6081,-90.4919,0010,18.9400
1993-03-25 15:00:00 UTC,2449072.125000,28.6081,-90.4919,0010,19.0400
1993-03-25 15:30:00 UTC,2449072.145833,28.6081,-90.4919,0010,19.0400
1993-03-25 16:00:00 UTC,2449072.166667,28.6081,-90.4919,0010,19.0400
1993-03-25 16:30:00 UTC,2449072.187500,28.6081,-90.4919,0010,19.0400
1993-03-25 17:00:00 UTC,2449072.208333,28.6081,-90.4919,0010,18.9400
1993-03-25 17:30:00 UTC,2449072.229167,28.6081,-90.4919,0010,18.9400
1993-03-25 18:00:00 UTC,2449072.250000,28.6081,-90.4919,0010,18.9400
1993-03-25 18:30:00 UTC,2449072.270833,28.6081,-90.4919,0010,19.0400
1993-03-25 19:00:00 UTC,2449072.291667,28.6081,-90.4919,0010,18.9400
1993-03-25 19:30:00 UTC,2449072.312500,28.6081,-90.4919,0010,19.0400
1993-03-25 20:00:00 UTC,2449072.333333,28.6081,-90.4919,0010,19.0400
1993-03-25 20:30:00 UTC,2449072.354167,28.6081,-90.4919,0010,18.9400
1993-03-25 21:00:00 UTC,2449072.375000,28.6081,-90.4919,0010,18.9400
1993-03-25 21:30:00 UTC,2449072.395833,28.6081,-90.4919,0010,18.9400
1993-03-25 22:00:00 UTC,2449072.416667,28.6081,-90.4919,0010,18.9400
1993-03-25 22:30:00 UTC,2449072.437500,28.6081,-90.4919,0010,18.9400
1993-03-25 23:00:00 UTC,2449072.458333,28.6081,-90.4919,0010,18.9400
1993-03-25 23:30:00 UTC,2449072.479167,28.6081,-90.4919,0010,18.9400
1993-03-26 00:00:00 UTC,2449072.500000,28.6081,-90.4919,0010,18.9400
1993-03-26 00:30:00 UTC,2449072.520833,28.6081,-90.4919,0010,18.9400
1993-03-26 01:00:00 UTC,2449072.541667,28.6081,-90.4919,0010,18.9400
1993-03-26 01:30:00 UTC,2449072.562500,28.6081,-90.4919,0010,18.9400
1993-03-26 02:00:00 UTC,2449072.583333,28.6081,-90.4919,0010,18.9400
1993-03-26 02:30:00 UTC,2449072.604167,28.6081,-90.4919,0010,18.9400
1993-03-26 03:00:00 UTC,2449072.625000,28.6081,-90.4919,0010,18.9400
1993-03-26 03:30:00 UTC,2449072.645833,28.6081,-90.4919,0010,18.9400
1993-03-26 04:00:00 UTC,2449072.666667,28.6081,-90.4919,0010,18.9400
1993-03-26 04:30:00 UTC,2449072.687500,28.6081,-90.4919,0010,18.9400
1993-03-26 05:00:00 UTC,2449072.708333,28.6081,-90.4919,0010,19.0400
1993-03-26 05:30:00 UTC,2449072.729167,28.6081,-90.4919,0010,18.9400
1993-03-26 06:00:00 UTC,2449072.750000,28.6081,-90.4919,0010,18.9400
1993-03-26 06:30:00 UTC,2449072.770833,28.6081,-90.4919,0010,18.9400
1993-03-26 07:00:00 UTC,2449072.791667,28.6081,-90.4919,0010,18.9400
1993-03-26 07:30:00 UTC,2449072.812500,28.6081,-90.4919,0010,19.0400
1993-03-26 08:00:00 UTC,2449072.833333,28.6081,-90.4919,0010,18.9400
1993-03-26 08:30:00 UTC,2449072.854167,28.6081,-90.4919,0010,18.9400
1993-03-26 09:00:00 UTC,2449072.875000,28.6081,-90.4919,0010,18.9400
1993-03-26 09:30:00 UTC,2449072.895833,28.6081,-90.4919,0010,18.9400
1993-03-26 10:00:00 UTC,2449072.916667,28.6081,-90.4919,0010,18.9400
1993-03-26 10:30:00 UTC,2449072.937500,28.6081,-90.4919,0010,19.0400
1993-03-26 11:00:00 UTC,2449072.958333,28.6081,-90.4919,0010,18.9400
1993-03-26 11:30:00 UTC,2449072.979167,28.6081,-90.4919,0010,19.0400
1993-03-26 12:00:00 UTC,2449073.000000,28.6081,-90.4919,0010,18.9400
1993-03-26 12:30:00 UTC,2449073.020833,28.6081,-90.4919,0010,18.9400
1993-03-26 13:00:00 UTC,2449073.041667,28.6081,-90.4919,0010,19.0400
1993-03-26 13:30:00 UTC,2449073.062500,28.6081,-90.4919,0010,18.9400
1993-03-26 14:00:00 UTC,2449073.083333,28.6081,-90.4919,0010,19.0400
1993-03-26 14:30:00 UTC,2449073.104167,28.6081,-90.4919,0010,18.9400
1993-03-26 15:00:00 UTC,2449073.125000,28.6081,-90.4919,0010,19.0400
1993-03-26 15:30:00 UTC,2449073.145833,28.6081,-90.4919,0010,18.9400
1993-03-26 16:00:00 UTC,2449073.166667,28.6081,-90.4919,0010,19.0400
1993-03-26 16:30:00 UTC,2449073.187500,28.6081,-90.4919,0010,19.0400
1993-03-26 17:00:00 UTC,2449073.208333,28.6081,-90.4919,0010,19.0400
1993-03-26 17:30:00 UTC,2449073.229167,28.6081,-90.4919,0010,18.9400
1993-03-26 18:00:00 UTC,2449073.250000,28.6081,-90.4919,0010,19.0400
1993-03-26 18:30:00 UTC,2449073.270833,28.6081,-90.4919,0010,18.9400
1993-03-26 19:00:00 UTC,2449073.291667,28.6081,-90.4919,0010,18.9400
1993-03-26 19:30:00 UTC,2449073.312500,28.6081,-90.4919,0010,18.9400
1993-03-26 20:00:00 UTC,2449073.333333,28.6081,-90.4919,0010,19.0400
1993-03-26 20:30:00 UTC,2449073.354167,28.6081,-90.4919,0010,19.0400
1993-03-26 21:00:00 UTC,2449073.375000,28.6081,-90.4919,0010,19.0400
1993-03-26 21:30:00 UTC,2449073.395833,28.6081,-90.4919,0010,18.9400
1993-03-26 22:00:00 UTC,2449073.416667,28.6081,-90.4919,0010,19.0400
1993-03-26 22:30:00 UTC,2449073.437500,28.6081,-90.4919,0010,19.0400
1993-03-26 23:00:00 UTC,2449073.458333,28.6081,-90.4919,0010,19.0400
1993-03-26 23:30:00 UTC,2449073.479167,28.6081,-90.4919,0010,19.0400
1993-03-27 00:00:00 UTC,2449073.500000,28.6081,-90.4919,0010,19.0400
1993-03-27 00:30:00 UTC,2449073.520833,28.6081,-90.4919,0010,18.9400
1993-03-27 01:00:00 UTC,2449073.541667,28.6081,-90.4919,0010,18.9400
1993-03-27 01:30:00 UTC,2449073.562500,28.6081,-90.4919,0010,19.0400
1993-03-27 02:00:00 UTC,2449073.583333,28.6081,-90.4919,0010,19.0400
1993-03-27 02:30:00 UTC,2449073.604167,28.6081,-90.4919,0010,19.0400
1993-03-27 03:00:00 UTC,2449073.625000,28.6081,-90.4919,0010,19.0400
1993-03-27 03:30:00 UTC,2449073.645833,28.6081,-90.4919,0010,18.9400
1993-03-27 04:00:00 UTC,2449073.666667,28.6081,-90.4919,0010,19.0400
1993-03-27 04:30:00 UTC,2449073.687500,28.6081,-90.4919,0010,19.0400
1993-03-27 05:00:00 UTC,2449073.708333,28.6081,-90.4919,0010,19.0400